Time,TemperatureF,DewpointF,PressureIn,WindDirection,WindDirectionDegrees,WindSpeedMPH,WindSpeedGustMPH,Humidity,HourlyPrecipIn,Conditions,Clouds,dailyrainin,SolarRadiationWatts/m^2,SoftwareType,DateUTC
2013-02-28 00:21:00,4.0,1.0,-100.00,NW,304,2.0,9.0,85,0.00,,,0.01,0.000000,,2013-02-28 07:21:00,
2013-02-28 00:31:00,4.0,1.0,-100.00,NW,304,2.0,9.0,85,0.00,,,0.01,0.000000,,2013-02-28 07:31:00,
2013-02-28 00:41:00,4.0,1.0,-100.00,NW,304,2.0,9.0,85,0.00,,,0.01,0.000000,,2013-02-28 07:41:00,
2013-02-28 00:51:00,4.0,1.0,-100.00,NW,304,2.0,9.0,85,0.00,,,0.01,0.000000,,2013-02-28 07:51:00,
2013-02-28 01:21:00,4.0,0.0,-100.00,North,6,5.0,7.0,83,0.00,,,-99.99,0.000000,,2013-02-28 08:21:00,
2013-02-28 01:32:00,4.0,0.0,-100.00,North,6,5.0,7.0,83,0.00,,,-99.99,0.000000,,2013-02-28 08:32:00,
2013-02-28 01:42:00,4.0,0.0,-100.00,North,6,5.0,7.0,83,0.00,,,-99.99,0.000000,,2013-02-28 08:42:00,
2013-02-28 01:52:00,4.0,0.0,-100.00,North,6,5.0,7.0,83,0.00,,,-99.99,0.000000,,2013-02-28 08:52:00,
2013-02-28 02:21:00,1.0,-3.0,-100.00,NNW,333,2.0,5.0,83,0.00,,,0.01,0.000000,,2013-02-28 09:21:00,
2013-02-28 02:32:00,1.0,-3.0,-100.00,NNW,333,2.0,5.0,83,0.00,,,0.01,0.000000,,2013-02-28 09:32:00,
2013-02-28 02:41:00,1.0,-3.0,-100.00,NNW,333,2.0,5.0,83,0.00,,,0.01,0.000000,,2013-02-28 09:41:00,
2013-02-28 02:52:00,1.0,-3.0,-100.00,NNW,333,2.0,5.0,83,0.00,,,0.01,0.000000,,2013-02-28 09:52:00,
2013-02-28 03:21:00,0.0,-4.0,-100.00,NW,308,1.0,5.0,82,0.00,,,0.01,0.000000,,2013-02-28 10:21:00,
2013-02-28 03:32:00,0.0,-4.0,-100.00,NW,308,1.0,5.0,82,0.00,,,0.01,0.000000,,2013-02-28 10:32:00,
2013-02-28 03:42:00,0.0,-4.0,-100.00,NW,308,1.0,5.0,82,0.00,,,0.01,0.000000,,2013-02-28 10:42:00,
2013-02-28 03:51:00,0.0,-4.0,-100.00,NW,308,1.0,5.0,82,0.00,,,0.01,0.000000,,2013-02-28 10:51:00,
2013-02-28 04:21:00,3.0,-1.0,-100.00,North,351,5.0,7.0,82,0.00,,,0.01,0.000000,,2013-02-28 11:21:00,
2013-02-28 04:32:00,3.0,-1.0,-100.00,North,351,5.0,7.0,82,0.00,,,0.01,0.000000,,2013-02-28 11:32:00,
2013-02-28 04:42:00,3.0,-1.0,-100.00,North,351,5.0,7.0,82,0.00,,,0.01,0.000000,,2013-02-28 11:42:00,
2013-02-28 04:52:00,3.0,-1.0,-100.00,North,351,5.0,7.0,82,0.00,,,0.01,0.000000,,2013-02-28 11:52:00,
2013-02-28 05:21:00,-2.0,-8.0,-100.00,North,10,3.0,7.0,76,0.00,,,-99.99,0.000000,,2013-02-28 12:21:00,
2013-02-28 05:32:00,-2.0,-8.0,-100.00,North,10,3.0,7.0,76,0.00,,,-99.99,0.000000,,2013-02-28 12:32:00,
2013-02-28 05:42:00,-2.0,-8.0,-100.00,North,10,3.0,7.0,76,0.00,,,-99.99,0.000000,,2013-02-28 12:42:00,
2013-02-28 05:52:00,-2.0,-8.0,-100.00,North,10,3.0,7.0,76,0.00,,,-99.99,0.000000,,2013-02-28 12:52:00,
2013-02-28 06:21:00,2.0,-2.0,-100.00,North,2,3.0,6.0,82,0.00,,,0.01,0.000000,,2013-02-28 13:21:00,
2013-02-28 06:32:00,2.0,-2.0,-100.00,North,2,3.0,6.0,82,0.00,,,0.01,0.000000,,2013-02-28 13:32:00,
2013-02-28 06:42:00,2.0,-2.0,-100.00,North,2,3.0,6.0,82,0.00,,,0.01,0.000000,,2013-02-28 13:42:00,
2013-02-28 06:52:00,2.0,-2.0,-100.00,North,2,3.0,6.0,82,0.00,,,0.01,0.000000,,2013-02-28 13:52:00,
2013-02-28 07:21:00,4.0,0.0,-100.00,NNW,336,1.0,6.0,82,0.00,,,0.01,1.000000,,2013-02-28 14:21:00,
2013-02-28 07:32:00,4.0,0.0,-100.00,NNW,336,1.0,6.0,82,0.00,,,0.01,1.000000,,2013-02-28 14:32:00,
2013-02-28 07:42:00,4.0,0.0,-100.00,NNW,336,1.0,6.0,82,0.00,,,0.01,1.000000,,2013-02-28 14:42:00,
2013-02-28 07:52:00,4.0,0.0,-100.00,NNW,336,1.0,6.0,82,0.00,,,0.01,1.000000,,2013-02-28 14:52:00,
2013-02-28 08:21:00,4.0,-1.0,-100.00,ESE,112,2.0,4.0,79,0.00,,,0.01,30.000000,,2013-02-28 15:21:00,
2013-02-28 08:32:00,4.0,-1.0,-100.00,ESE,112,2.0,4.0,79,0.00,,,0.01,30.000000,,2013-02-28 15:32:00,
2013-02-28 08:41:00,4.0,-1.0,-100.00,ESE,112,2.0,4.0,79,0.00,,,0.01,30.000000,,2013-02-28 15:41:00,
2013-02-28 08:52:00,4.0,-1.0,-100.00,ESE,112,2.0,4.0,79,0.00,,,0.01,30.000000,,2013-02-28 15:52:00,
2013-02-28 09:22:00,7.0,2.0,-100.00,SE,139,0.0,3.0,78,0.00,,,0.01,69.000000,,2013-02-28 16:22:00,
2013-02-28 09:32:00,7.0,2.0,-100.00,SE,139,0.0,3.0,78,0.00,,,0.01,69.000000,,2013-02-28 16:32:00,
2013-02-28 09:42:00,7.0,2.0,-100.00,SE,139,0.0,3.0,78,0.00,,,0.01,69.000000,,2013-02-28 16:42:00,
2013-02-28 09:52:00,7.0,2.0,-100.00,SE,139,0.0,3.0,78,0.00,,,0.01,69.000000,,2013-02-28 16:52:00,
2013-02-28 10:21:00,16.0,8.0,-100.00,NNE,22,1.0,3.0,69,0.00,,,0.01,117.000000,,2013-02-28 17:21:00,
2013-02-28 10:32:00,16.0,8.0,-100.00,NNE,22,1.0,3.0,69,0.00,,,0.01,117.000000,,2013-02-28 17:32:00,
2013-02-28 10:41:00,16.0,8.0,-100.00,NNE,22,1.0,3.0,69,0.00,,,0.01,117.000000,,2013-02-28 17:41:00,
2013-02-28 10:52:00,16.0,8.0,-100.00,NNE,22,1.0,3.0,69,0.00,,,0.01,117.000000,,2013-02-28 17:52:00,
2013-02-28 11:22:00,18.0,9.0,-100.00,ESE,110,3.0,4.0,66,0.01,,,0.02,142.000000,,2013-02-28 18:22:00,
2013-02-28 11:32:00,18.0,9.0,-100.00,ESE,110,3.0,4.0,66,0.01,,,0.02,142.000000,,2013-02-28 18:32:00,
2013-02-28 11:42:00,18.0,9.0,-100.00,ESE,110,3.0,4.0,66,0.01,,,0.02,142.000000,,2013-02-28 18:42:00,
2013-02-28 11:52:00,18.0,9.0,-100.00,ESE,110,3.0,4.0,66,0.01,,,0.02,142.000000,,2013-02-28 18:52:00,
2013-02-28 12:21:00,23.0,11.0,-100.00,NE,44,3.0,5.0,60,0.03,,,0.04,182.000000,,2013-02-28 19:21:00,
2013-02-28 12:32:00,23.0,11.0,-100.00,NE,44,3.0,5.0,60,0.03,,,0.04,182.000000,,2013-02-28 19:32:00,
2013-02-28 12:41:00,23.0,11.0,-100.00,NE,44,3.0,5.0,60,0.03,,,0.04,182.000000,,2013-02-28 19:41:00,
2013-02-28 12:51:00,23.0,11.0,-100.00,NE,44,3.0,5.0,60,0.03,,,0.04,182.000000,,2013-02-28 19:51:00,
2013-02-28 13:21:00,28.0,15.0,-100.00,SE,136,2.0,4.0,57,0.01,,,0.05,312.000000,,2013-02-28 20:21:00,
2013-02-28 13:32:00,28.0,15.0,-100.00,SE,136,2.0,4.0,57,0.01,,,0.05,312.000000,,2013-02-28 20:32:00,
2013-02-28 13:41:00,28.0,15.0,-100.00,SE,136,2.0,4.0,57,0.01,,,0.05,312.000000,,2013-02-28 20:41:00,
2013-02-28 13:52:00,28.0,15.0,-100.00,SE,136,2.0,4.0,57,0.01,,,0.05,312.000000,,2013-02-28 20:52:00,
2013-02-28 14:22:00,28.0,16.0,-100.00,NE,51,3.0,5.0,61,0.00,,,0.05,516.000000,,2013-02-28 21:22:00,
2013-02-28 14:31:00,28.0,16.0,-100.00,NE,51,3.0,5.0,61,0.00,,,0.05,516.000000,,2013-02-28 21:31:00,
2013-02-28 14:41:00,28.0,16.0,-100.00,NE,51,3.0,5.0,61,0.00,,,0.05,516.000000,,2013-02-28 21:41:00,
2013-02-28 14:51:00,28.0,16.0,-100.00,NE,51,3.0,5.0,61,0.00,,,0.05,516.000000,,2013-02-28 21:51:00,
2013-02-28 15:21:00,26.0,17.0,-100.00,NE,43,4.0,5.0,69,0.00,,,0.05,425.000000,,2013-02-28 22:21:00,
2013-02-28 15:32:00,26.0,17.0,-100.00,NE,43,4.0,5.0,69,0.00,,,0.05,425.000000,,2013-02-28 22:32:00,
2013-02-28 15:41:00,26.0,17.0,-100.00,NE,43,4.0,5.0,69,0.00,,,0.05,425.000000,,2013-02-28 22:41:00,
2013-02-28 15:52:00,26.0,17.0,-100.00,NE,43,4.0,5.0,69,0.00,,,0.05,425.000000,,2013-02-28 22:52:00,
2013-02-28 16:21:00,25.0,17.0,-100.00,NNE,33,4.0,5.0,71,0.00,,,0.05,331.000000,,2013-02-28 23:21:00,
2013-02-28 16:31:00,25.0,17.0,-100.00,NNE,33,4.0,5.0,71,0.00,,,0.05,331.000000,,2013-02-28 23:31:00,
2013-02-28 16:41:00,25.0,17.0,-100.00,NNE,33,4.0,5.0,71,0.00,,,0.05,331.000000,,2013-02-28 23:41:00,
2013-02-28 16:52:00,25.0,17.0,-100.00,NNE,33,4.0,5.0,71,0.00,,,0.05,331.000000,,2013-02-28 23:52:00,
2013-02-28 17:22:00,24.0,17.0,-100.00,NNW,345,1.0,4.0,74,0.00,,,0.05,193.000000,,2013-03-01 00:22:00,
2013-02-28 17:32:00,24.0,17.0,-100.00,NNW,345,1.0,4.0,74,0.00,,,0.05,193.000000,,2013-03-01 00:32:00,
2013-02-28 17:41:00,24.0,17.0,-100.00,NNW,345,1.0,4.0,74,0.00,,,0.05,193.000000,,2013-03-01 00:41:00,
2013-02-28 17:51:00,24.0,17.0,-100.00,NNW,345,1.0,4.0,74,0.00,,,0.05,193.000000,,2013-03-01 00:51:00,
2013-02-28 18:21:00,22.0,18.0,-100.00,NNW,331,2.0,7.0,84,0.00,,,0.05,53.000000,,2013-03-01 01:21:00,
2013-02-28 18:31:00,22.0,18.0,-100.00,NNW,331,2.0,7.0,84,0.00,,,0.05,53.000000,,2013-03-01 01:31:00,
2013-02-28 18:42:00,22.0,18.0,-100.00,NNW,331,2.0,7.0,84,0.00,,,0.05,53.000000,,2013-03-01 01:42:00,
2013-02-28 18:51:00,22.0,18.0,-100.00,NNW,331,2.0,7.0,84,0.00,,,0.05,53.000000,,2013-03-01 01:51:00,
2013-02-28 19:21:00,20.0,17.0,-100.00,NW,321,2.0,5.0,89,0.00,,,0.05,2.000000,,2013-03-01 02:21:00,
2013-02-28 19:31:00,20.0,17.0,-100.00,NW,321,2.0,5.0,89,0.00,,,0.05,2.000000,,2013-03-01 02:31:00,
2013-02-28 19:42:00,20.0,17.0,-100.00,NW,321,2.0,5.0,89,0.00,,,0.05,2.000000,,2013-03-01 02:42:00,
2013-02-28 19:52:00,20.0,17.0,-100.00,NW,321,2.0,5.0,89,0.00,,,0.05,2.000000,,2013-03-01 02:52:00,
2013-02-28 20:11:00,20.0,18.0,-100.00,North,359,3.0,5.0,91,0.00,,,0.05,0.000000,,2013-03-01 03:11:00,
2013-02-28 20:21:00,20.0,18.0,-100.00,North,359,3.0,5.0,91,0.00,,,0.05,0.000000,,2013-03-01 03:21:00,
2013-02-28 20:32:00,20.0,18.0,-100.00,North,359,3.0,5.0,91,0.00,,,0.05,0.000000,,2013-03-01 03:32:00,
2013-02-28 20:41:00,20.0,18.0,-100.00,North,359,3.0,5.0,91,0.00,,,0.05,0.000000,,2013-03-01 03:41:00,
2013-02-28 20:51:00,20.0,18.0,-100.00,North,359,3.0,5.0,91,0.00,,,0.05,0.000000,,2013-03-01 03:51:00,
2013-02-28 21:41:00,20.0,18.0,-100.00,NNE,15,4.0,5.0,91,0.00,,,0.05,0.000000,,2013-03-01 04:41:00,
2013-02-28 21:51:00,20.0,18.0,-100.00,NNE,15,4.0,5.0,91,0.00,,,0.05,0.000000,,2013-03-01 04:51:00,
2013-02-28 22:22:00,20.0,18.0,-100.00,North,1,3.0,5.0,91,0.00,,,0.05,0.000000,,2013-03-01 05:22:00,
2013-02-28 22:32:00,20.0,18.0,-100.00,North,1,3.0,5.0,91,0.00,,,0.05,0.000000,,2013-03-01 05:32:00,
2013-02-28 22:41:00,20.0,18.0,-100.00,North,1,3.0,5.0,91,0.00,,,0.05,0.000000,,2013-03-01 05:41:00,
2013-02-28 22:52:00,20.0,18.0,-100.00,North,1,3.0,5.0,91,0.00,,,0.05,0.000000,,2013-03-01 05:52:00,
2013-02-28 23:21:00,20.0,18.0,-100.00,NNW,332,5.0,7.0,90,0.00,,,0.05,1.000000,,2013-03-01 06:21:00,
2013-02-28 23:32:00,20.0,18.0,-100.00,NNW,332,5.0,7.0,90,0.00,,,0.05,1.000000,,2013-03-01 06:32:00,
2013-02-28 23:42:00,20.0,18.0,-100.00,NNW,332,5.0,7.0,90,0.00,,,0.05,1.000000,,2013-03-01 06:42:00,
2013-02-28 23:52:00,20.0,18.0,-100.00,NNW,332,5.0,7.0,90,0.00,,,0.05,1.000000,,2013-03-01 06:52:00,